Regional Weather Roundup
Issued by NWS

Home | Current Version | Previous Version | Graphics & Text | Print | Product List | Glossary On
Versions: 1 2 3 4 5 6 7 8 9 10 11 12 13 14 15 16 17 18 19 20 21 22 23 24 25 26 27 28 29 30 31 32 33 34 35 36 37 38 39 40 41 42 43 44 45 46 47 48 49 50
000
ASUS43 KFSD 250710
RWRSD

WEATHER ROUNDUP FOR SOUTH DAKOTA
NATIONAL WEATHER SERVICE SIOUX FALLS SD
200 AM CDT MON MAY 25 2015

NOTE: "FAIR" INDICATES FEW OR NO CLOUDS BELOW 12,000 FEET WITH NO
SIGNIFICANT WEATHER AND/OR OBSTRUCTIONS TO VISIBILITY.


SDZ001>005-009-010-012>017-250800-
NORTHWEST AND NORTH CENTRAL SOUTH DAKOTA

CITY           SKY/WX    TMP DP  RH WIND       PRES   REMARKS
BUFFALO          N/A     53  50  89 NE7       29.81S
FAITH            N/A     54  52  93 N5        29.85R
MOBRIDGE       LGT RAIN  57  57 100 NE10      29.79F
$$

SDZ012>016-024>037-041>051-057-063-072>074-250800-
SOUTHWEST AND SOUTH CENTRAL SOUTH DAKOTA

CITY           SKY/WX    TMP DP  RH WIND       PRES   REMARKS
RAPID CTY ARPT CLOUDY    52  51  97 N8        29.85F
PIERRE         LGT RAIN  57  57 100 CALM      29.79S FOG
CUSTER         CLOUDY    46  44  93 NE9       29.88F
ELLSWORTH AFB  FOG       52  52 100 N8        29.85  VSB 1/2
PHILIP         CLOUDY    56  55  97 NE6       29.81F
PINE RIDGE     CLOUDY    55  53  93 NE7       29.82S
SPEARFISH      FOG       48  48 100 CALM      29.89S VSB<1/4
WINNER         FOG       59  57  93 CALM      29.79S VSB 1/4
$$

SDZ004>011-016>023-039-040-250800-
NORTHEAST SOUTH DAKOTA

CITY           SKY/WX    TMP DP  RH WIND       PRES   REMARKS
ABERDEEN       RAIN      57  56  96 N9        29.80F FOG
WATERTOWN      LGT RAIN  57  55  93 CALM      29.77F FOG
BROOKINGS      CLOUDY    57  55  94 NW3       29.77S
SISSETON         N/A     57  57 100 NE8       29.77F
$$

SDZ017-020-022-023-036>040-048>070-250800-
SOUTHEAST SOUTH DAKOTA

CITY           SKY/WX    TMP DP  RH WIND       PRES   REMARKS
SIOUX FALLS    CLOUDY    59  58  96 NW3       29.74F
HURON          CLOUDY    57  57 100 N5        29.77S
CHAMBERLAIN    CLOUDY    57  57  99 CALM      29.79S
MITCHELL       CLOUDY    59  58  96 CALM      29.77S
YANKTON        MOCLDY    59  57  94 SW3       29.74F
$$

ABBREVIATIONS USED IN REMARKS
   TC - TEMPERATURE IN CELSIUS
  WCI - WIND CHILL INDEX
   HX - HEAT INDEX
  VSB - VISIBILITY




USA.gov is the U.S. government's official web portal to all federal, state and local government web resources and services.